Weather History for Tel Aviv, Israel

Change the Weather History Date:

Sunday, February 19, 2012

  Actual Average Record
Temperature  
Mean Temperature 52 °F -  
Max Temperature 59 °F 65 °F 80 °F (2005)
Min Temperature 46 °F 50 °F 42 °F (2002)
Degree Days  
Heating Degree Days 12    
Growing Degree Days 2 (Base 50)    
Moisture  
Dew Point 43 °F    
Average Humidity 75    
Maximum Humidity 88    
Minimum Humidity 37    
Precipitation  
Precipitation 0.20 in - - ()
Sea Level Pressure  
Sea Level Pressure 30.15 in    
Wind  
Wind Speed 10 mph ()    
Max Wind Speed 21 mph    
Max Gust Speed 31 mph    
Visibility 5.8 miles    
Events Rain    
Averages and records for this station are not official NWS values.
T = Trace of Precipitation, MM = Missing Value Source: Averaged Metar Reports

Daily Weather History Graph

Daily Weather History Graph

Search for Another Location

Airport:

Trip Planner

Search our weather history database for the weather conditions in past years. The results will help you decide how hot, cold, wet, or windy it might be!

Date:

Astronomy

Feb. 19, 2012 Rise Set
Actual Time 6:19 AM IST 5:29 PM IST
Civil Twilight 5:54 AM IST 5:54 PM IST
Nautical Twilight 5:26 AM IST 6:23 PM IST
Astronomical Twilight 4:57 AM IST 6:51 PM IST
Moon 4:19 AM IST (2/19) 3:14 PM IST (2/19)
Length of Visible Light 11h 59m
Length of Day
11h 10m
Waning Crescent, 7% of the Moon is Illuminated
Feb 19
Waning Crescent
Feb 22
New
Mar 1
First Quarter
Mar 8
Full
Mar 15
Last Quarter

Hourly Weather History & Observations

Time (IST) Temp. Windchill Dew Point Humidity Pressure Visibility Wind Dir Wind Speed Gust Speed Precip Events Conditions
12:26 AM 48.2 °F - 39.2 °F 71% 30.06 in 4.3 mi WSW 17.3 mph 31.1 mph N/A Rain Rain
12:41 AM 48.2 °F - 39.2 °F 71% 30.06 in 6.2 mi SSW 9.2 mph - N/A   Mostly Cloudy
12:50 AM 48.2 °F - 41.0 °F 76% 30.06 in 6.2 mi South 8.1 mph - N/A   Mostly Cloudy
1:50 AM 48.2 °F - 41.0 °F 76% 30.06 in 6.2 mi South 10.4 mph - N/A   Mostly Cloudy
2:00 AM 47 °F - 42 °F 76% 30.09 in 6 mi South 10.4 mph - -   Partly Cloudy
2:50 AM 48.2 °F - 41.0 °F 76% 30.06 in 6.2 mi South 10.4 mph - N/A   Mostly Cloudy
3:50 AM 46.4 °F 42.4 °F 42.8 °F 87% 30.06 in 6.2 mi SSE 8.1 mph - N/A   Mostly Cloudy
4:50 AM 46.4 °F 41.5 °F 42.8 °F 87% 30.06 in 6.2 mi SSE 10.4 mph - N/A Rain Light Rain
5:30 AM 46.4 °F 41.5 °F 42.8 °F 87% 30.06 in 5.6 mi SSE 10.4 mph - N/A Rain Rain
5:39 AM 46.4 °F 41.1 °F 42.8 °F 87% 30.06 in 6.2 mi South 11.5 mph - N/A Rain Light Rain
5:50 AM 46.4 °F 41.1 °F 42.8 °F 87% 30.06 in 6.2 mi South 11.5 mph - N/A   Mostly Cloudy
6:50 AM 48.2 °F - 44.6 °F 87% 30.09 in 5.6 mi SE 6.9 mph - N/A   Mostly Cloudy
7:13 AM 48.2 °F - 44.6 °F 87% 30.09 in 4.3 mi South 6.9 mph - N/A Rain Light Rain
7:50 AM 50.0 °F - 44.6 °F 82% 30.12 in 6.2 mi South 10.4 mph - N/A   Mostly Cloudy
8:00 AM 49 °F - 45 °F 82% 30.13 in 6 mi South 10.4 mph - - Rain Light Rain Showers
8:50 AM 48.2 °F - 44.6 °F 87% 30.15 in 5.6 mi SSE 11.5 mph - N/A   Mostly Cloudy
9:50 AM 51.8 °F - 48.2 °F 88% 30.15 in 6.2 mi South 12.7 mph - N/A   Mostly Cloudy
10:40 AM 50.0 °F - 46.4 °F 87% 30.18 in 2.5 mi South 15.0 mph - N/A Rain Rain Showers
10:50 AM 50.0 °F - 46.4 °F 87% 30.18 in 2.5 mi South 15.0 mph - N/A Rain Rain Showers
11:50 AM 53.6 °F - 50.0 °F 88% 30.15 in 6.2 mi SSE 8.1 mph - N/A   Mostly Cloudy
12:11 PM 57.2 °F - 41.0 °F 55% 30.15 in 6.2 mi West 11.5 mph - N/A   Mostly Cloudy
12:50 PM 57.2 °F - 41.0 °F 55% 30.15 in 6.2 mi West 17.3 mph - N/A   Mostly Cloudy
1:50 PM 59.0 °F - 39.2 °F 48% 30.18 in 6.2 mi West 20.7 mph - N/A   Mostly Cloudy
2:00 PM 58 °F - 39 °F 37% 30.18 in 6 mi West 20.7 mph - -   Partly Cloudy
2:50 PM 57.2 °F - 39.2 °F 51% 30.18 in 6.2 mi WNW 16.1 mph - N/A   Mostly Cloudy
3:50 PM 53.6 °F - 44.6 °F 72% 30.21 in 6.2 mi West 12.7 mph 24.2 mph N/A   Mostly Cloudy
4:50 PM 53.6 °F - 41.0 °F 62% 30.21 in 6.2 mi NW 5.8 mph - N/A   Scattered Clouds
5:50 PM 53.6 °F - 41.0 °F 62% 30.21 in 6.2 mi WNW 3.5 mph - N/A   Scattered Clouds
6:50 PM 53.6 °F - 41.0 °F 62% 30.24 in 6.2 mi WNW 8.1 mph - N/A   Scattered Clouds
7:50 PM 51.8 °F - 46.4 °F 82% 30.27 in 6.2 mi North 3.5 mph - N/A   Scattered Clouds
8:00 PM 51 °F - 41 °F 58% 30.28 in 6 mi North 3.5 mph - -   Partly Cloudy
8:50 PM 50.0 °F - 42.8 °F 76% 30.27 in - East 3.5 mph - N/A   Clear
9:50 PM 46.4 °F - 41.0 °F 81% 30.30 in 6.2 mi East 1.2 mph - N/A   Partly Cloudy
10:50 PM 46.4 °F - 41.0 °F 81% 30.30 in 6.2 mi Calm Calm - N/A   Partly Cloudy
11:50 PM 46.4 °F 45.2 °F 41.0 °F 81% 30.30 in - SE 3.5 mph - N/A   Clear